TimeEST,TemperatureF,Dew PointF,Humidity,Sea Level PressureIn,VisibilityMPH,Wind Direction,Wind SpeedMPH,Gust SpeedMPH,PrecipitationIn,Events,Conditions,WindDirDegrees,DateUTC
12:51 AM,30.0,18.0,61,30.43,10.0,NW,5.8,-,N/A,,Clear,320,2012-03-10 05:51:00
1:51 AM,28.9,18.0,64,30.44,10.0,NNW,4.6,-,N/A,,Clear,340,2012-03-10 06:51:00
2:51 AM,28.0,17.1,63,30.44,10.0,North,5.8,-,N/A,,Clear,350,2012-03-10 07:51:00
3:51 AM,27.0,17.1,66,30.44,10.0,North,4.6,-,N/A,,Clear,360,2012-03-10 08:51:00
4:51 AM,27.0,18.0,69,30.45,10.0,North,6.9,-,N/A,,Clear,350,2012-03-10 09:51:00
5:51 AM,26.1,17.1,69,30.48,10.0,North,5.8,-,N/A,,Clear,360,2012-03-10 10:51:00
6:51 AM,25.0,17.1,72,30.52,10.0,Calm,Calm,-,N/A,,Clear,0,2012-03-10 11:51:00
7:51 AM,28.0,17.1,63,30.53,10.0,NNE,4.6,-,N/A,,Clear,20,2012-03-10 12:51:00
8:51 AM,30.9,18.0,59,30.54,10.0,Calm,Calm,-,N/A,,Clear,0,2012-03-10 13:51:00
9:51 AM,35.1,17.1,48,30.54,10.0,Calm,Calm,-,N/A,,Clear,0,2012-03-10 14:51:00
10:51 AM,39.9,12.0,32,30.53,10.0,Variable,5.8,-,N/A,,Clear,0,2012-03-10 15:51:00
11:51 AM,43.0,10.0,26,30.51,10.0,Calm,Calm,-,N/A,,Clear,0,2012-03-10 16:51:00
12:51 PM,46.4,8.6,22,30.43,10.0,Variable,3.5,-,N/A,,Clear,0,2012-03-10 17:51:00
1:51 PM,48.9,12.9,24,30.48,10.0,WNW,3.5,-,N/A,,Clear,290,2012-03-10 18:51:00
2:51 PM,50.0,10.0,20,30.48,10.0,Variable,3.5,-,N/A,,Clear,0,2012-03-10 19:51:00
3:51 PM,52.0,12.9,21,30.47,10.0,Variable,4.6,-,N/A,,Clear,0,2012-03-10 20:51:00
4:51 PM,52.0,10.9,19,30.46,10.0,Calm,Calm,-,N/A,,Clear,0,2012-03-10 21:51:00
5:51 PM,51.1,12.9,22,30.47,10.0,North,4.6,-,N/A,,Clear,350,2012-03-10 22:51:00
6:51 PM,48.0,14.0,26,30.47,10.0,Calm,Calm,-,N/A,,Clear,0,2012-03-10 23:51:00
7:51 PM,43.0,16.0,34,30.48,10.0,Calm,Calm,-,N/A,,Clear,0,2012-03-11 00:51:00
8:51 PM,39.9,17.1,40,30.47,10.0,SSE,4.6,-,N/A,,Clear,160,2012-03-11 01:51:00
9:51 PM,39.9,17.1,40,30.47,10.0,SE,4.6,-,N/A,,Clear,140,2012-03-11 02:51:00
10:51 PM,43.0,18.0,37,30.45,10.0,SE,8.1,-,N/A,,Clear,140,2012-03-11 03:51:00
11:51 PM,43.0,18.0,37,30.45,10.0,SSE,10.4,-,N/A,,Clear,150,2012-03-11 04:51:00